Location: Miles
(41.4492°N, 81.6087°W)
Time: 12:37:38
(UTC+00:00)

Courier 1B - Pass Details

Date: 19 September 2024
Orbit: 962 x 1208 km, 28.3° (Epoch: 10 October)

Event Time Altitude Azimuth Distance (km) Brightness Sun altitude
Rises 18:37:38 0° 237° (WSW) 3,761 11.2 46.0°
Reaches altitude 10° 18:40:42 10° 225° (SW) 2,848 10.9 45.7°
Maximum altitude 18:46:19 26° 171° (S) 1,967 10.1 45.2°
Drops below altitude 10° 18:52:14 10° 118° (ESE) 3,001 10.1 44.6°
Sets 18:55:34 0° 106° (ESE) 4,002 10.6 44.2°
